Showing default

USA 17, 16625

Orbit data source: Space-Track

USA 17, 16625 is an American payload satellite in LEO that was launched on Sun, 09 Feb 1986 UTC via an ATLAS H launch vehicle from the Air Force Western Test Range (AFWTR). Payload-class satellites include a variety of spacecraft equipped with specific instruments for various scientific and technological missions. These include communications satellites like Starlink; space stations such as the ISS; scientific satellites like the Hubble; Earth observation satellites from companies like Planet Labs, Umbra, and HawkEye 360; GPS; miniature CubeSats for education and research; and military/defense satellites.

Loading next visibility...
Identifier
16625, 1986-014F
Orbit
LEO
Country
Flag of USUS
Related business
Manufacturer
Martin Marietta
Mission
Spacecraft
Bus & Motor
NOSS SSU, Unknown motor
Mass
200 kg wet, 200 kg dry
Launch date (UTC)
1986-02-09 (40 years ago)
Launch vehicle
ATLAS H
Launch site
Air Force Western Test Range (AFWTR)
Object type
Payload
Rocket body
Debris
Shape & HBR
Unknown
Radar Cross Section
Large (>1 m²)

Expand to show TLE details & history
Last TLE update: 2 days ago

TLE from 2 days ago
0 USA 17
1 16625U 86014F   26171.24950559  .00003364  00000-0  32832-3 0  9992
2 16625  63.3017  92.3458 0785626 115.7427 252.6821 13.74477185343243
Epoch: 2026-06-20T05:59Z
TLE epoch observation values (Epoch: 2026-06-20T05:59:17.282Z)
Latitude
-0.00008°
Longitude
94.05691°
Altitude
1,197.396 km
Speed
7.151 km/s
True Right ascension
06h 09m 22s
True Declination
0° 00' 00"
Sunlit
Object was in daylight at epoch
Visualization orbit readout
Latitude
Unknown
Longitude
Unknown
Altitude
Unknown
Speed
Unknown
Apparent Right ascension
Unknown
Apparent Declination
Unknown
Sunlit
N/A
Visualization observer readout
Local Sidereal Time
23:08:00
Azimuth
Unknown
Elevation
Unknown
Doppler factor
Unknown
Orbital elements
Apogee altitude
1,560.614 km
Perigee altitude
404.095 km
Semi-major axis
7,360.492 km
Eccentricity
0.07856
Inclination
63.3017°
RAAN
92.3458°
Arg. of periapsis
115.7427°
True anomaly
244.36119°
Mean anomaly
252.6821°
Eccentric anomaly
248.49417°
Mean motion
3.43703 °/min
Orbital period
104.74 mins
BSTAR
0.00032832
Loading maneuver chart data...
Computing Atmospheric mass density...
Loading historical data...
Loading historical data...
Loading historical data...
Loading historical data...
Loading historical data...
Loading historical data...
Loading historical data...

Documentation

Showing up to 5 results
|